ETD628 OEGS-OMAA

Flight info

Callsign ETD628
Flight time 1h 31m
Altitude 37000
Route GAS J874 MUSRI L604 NARMI N685 ORSIS/N0441F350 N685 UMEVU Q415 UKILI
Aircraft A320/M-SDE3FGHIRWY/LB1

Departure

Time 2026-04-14 21:38
Airport Prince Naif bin Abdulaziz International Airport (OEGS)

Arrival

Time 2026-04-14 23:09
Airport Zayed International Airport (OMAA)
Time Latitude Longitude Altitude Speed Heading
2026-04-14 21:23 26.30546 43.76901 2137 ft 0 kts 243°
2026-04-14 21:32 26.30548 43.76905 2137 ft 2 kts 243°
2026-04-14 21:32 26.30556 43.76922 2137 ft 2 kts 243°
2026-04-14 21:32 26.30563 43.76939 2137 ft 2 kts 243°
2026-04-14 21:32 26.30571 43.76957 2135 ft 2 kts 257°
2026-04-14 21:33 26.30574 43.76976 2134 ft 3 kts 277°
2026-04-14 21:33 26.30569 43.76994 2136 ft 3 kts 313°
2026-04-14 21:33 26.30563 43.77001 2137 ft 0 kts 327°
2026-04-14 21:35 26.30572 43.76995 2134 ft 5 kts 328°
2026-04-14 21:35 26.30629 43.76959 2137 ft 14 kts 330°
2026-04-14 21:35 26.30741 43.76895 2135 ft 22 kts 333°
2026-04-14 21:35 26.30894 43.76809 2133 ft 26 kts 332°
2026-04-14 21:36 26.31066 43.76711 2131 ft 29 kts 333°
2026-04-14 21:36 26.31244 43.76611 2132 ft 29 kts 333°
2026-04-14 21:36 26.31371 43.76624 2133 ft 16 kts 13°
2026-04-14 21:36 26.31450 43.76705 2133 ft 17 kts 83°
2026-04-14 21:37 26.31370 43.76796 2132 ft 19 kts 153°
2026-04-14 21:37 26.31142 43.76924 2130 ft 67 kts 153°
2026-04-14 21:37 26.30546 43.77264 2133 ft 123 kts 153°
2026-04-14 21:37 26.29647 43.77772 2149 ft 164 kts 154°
2026-04-14 21:38 26.28614 43.78328 2625 ft 170 kts 154°
2026-04-14 21:38 26.27648 43.79100 3288 ft 171 kts 130°
2026-04-14 21:38 26.27190 43.80302 3926 ft 177 kts 91°
2026-04-14 21:38 26.27534 43.81668 4179 ft 199 kts 71°
2026-04-14 21:39 26.28077 43.83181 4350 ft 223 kts 71°
2026-04-14 21:39 26.28681 43.84881 4636 ft 248 kts 71°
2026-04-14 21:39 26.29338 43.86750 5070 ft 268 kts 71°
2026-04-14 21:39 26.29926 43.88734 5861 ft 271 kts 81°
2026-04-14 21:40 26.30141 43.90826 6731 ft 272 kts 89°
2026-04-14 21:40 26.30165 43.92938 7570 ft 273 kts 92°
2026-04-14 21:40 26.30126 43.95064 8403 ft 276 kts 92°
2026-04-14 21:40 26.30080 43.97212 9229 ft 279 kts 92°
2026-04-14 21:41 26.30046 43.99382 10041 ft 282 kts 91°
2026-04-14 21:41 26.30032 44.01580 10709 ft 289 kts 91°
2026-04-14 21:41 26.30032 44.03903 10924 ft 312 kts 90°
2026-04-14 21:41 26.30044 44.06410 11147 ft 333 kts 90°
2026-04-14 21:42 26.30064 44.09017 11680 ft 341 kts 90°
2026-04-14 21:42 26.30086 44.11683 12281 ft 347 kts 89°
2026-04-14 21:42 26.30108 44.14402 12855 ft 354 kts 89°
2026-04-14 21:42 26.30127 44.17139 13413 ft 361 kts 89°
2026-04-14 21:43 26.30145 44.19990 14027 ft 366 kts 89°
2026-04-14 21:43 26.30161 44.22848 14587 ft 371 kts 89°
2026-04-14 21:43 26.30176 44.25698 15146 ft 374 kts 89°
2026-04-14 21:43 26.30190 44.28619 15714 ft 378 kts 88°
2026-04-14 21:44 26.30205 44.31562 16278 ft 382 kts 88°
2026-04-14 21:44 26.30221 44.34536 16832 ft 386 kts 88°
2026-04-14 21:44 26.30240 44.37538 17386 ft 390 kts 88°
2026-04-14 21:44 26.30259 44.40572 17954 ft 393 kts 88°
2026-04-14 21:45 26.30276 44.43634 18517 ft 397 kts 88°
2026-04-14 21:45 26.30291 44.46729 19029 ft 401 kts 88°
2026-04-14 21:45 26.30305 44.49849 19548 ft 405 kts 88°
2026-04-14 21:45 26.30316 44.53001 20069 ft 409 kts 88°
2026-04-14 21:46 26.30326 44.56177 20592 ft 413 kts 88°
2026-04-14 21:46 26.30337 44.59391 21103 ft 417 kts 88°
2026-04-14 21:46 26.30347 44.62635 21596 ft 420 kts 88°
2026-04-14 21:46 26.30358 44.65910 22082 ft 424 kts 89°
2026-04-14 21:47 26.30367 44.69215 22550 ft 428 kts 89°
2026-04-14 21:47 26.30380 44.72505 23012 ft 432 kts 89°
2026-04-14 21:47 26.30393 44.75868 23463 ft 436 kts 89°
2026-04-14 21:47 26.30403 44.79264 23875 ft 440 kts 89°
2026-04-14 21:48 26.30411 44.82682 24234 ft 444 kts 89°
2026-04-14 21:48 26.30417 44.86136 24604 ft 447 kts 89°
2026-04-14 21:48 26.30420 44.89616 24962 ft 451 kts 90°
2026-04-14 21:48 26.30422 44.93120 25336 ft 453 kts 90°
2026-04-14 21:49 26.30421 44.96645 25697 ft 456 kts 90°
2026-04-14 21:49 26.30422 45.00184 26043 ft 459 kts 90°
2026-04-14 21:49 26.30426 45.03758 26384 ft 463 kts 90°
2026-04-14 21:49 26.30429 45.07356 26721 ft 466 kts 91°
2026-04-14 21:50 26.30430 45.10977 27054 ft 469 kts 91°
2026-04-14 21:50 26.30430 45.14622 27385 ft 472 kts 91°
2026-04-14 21:50 26.30430 45.18281 27714 ft 475 kts 91°
2026-04-14 21:50 26.30428 45.21975 28044 ft 478 kts 91°
2026-04-14 21:51 26.30423 45.25680 28370 ft 481 kts 92°
2026-04-14 21:51 26.30418 45.29420 28695 ft 483 kts 92°
2026-04-14 21:51 26.30414 45.33130 29007 ft 486 kts 92°
2026-04-14 21:51 26.30410 45.36910 29319 ft 489 kts 92°
2026-04-14 21:52 26.30403 45.40715 29630 ft 492 kts 92°
2026-04-14 21:52 26.30393 45.44532 29941 ft 495 kts 93°
2026-04-14 21:52 26.30382 45.48381 30254 ft 497 kts 93°
2026-04-14 21:52 26.30372 45.52233 30648 ft 496 kts 93°
2026-04-14 21:53 26.30361 45.56076 31048 ft 495 kts 94°
2026-04-14 21:53 26.30350 45.59911 31441 ft 494 kts 94°
2026-04-14 21:53 26.30337 45.63737 31835 ft 493 kts 94°
2026-04-14 21:53 26.30322 45.67550 32227 ft 493 kts 94°
2026-04-14 21:54 26.30303 45.71369 32621 ft 492 kts 94°
2026-04-14 21:54 26.30283 45.75185 33012 ft 492 kts 94°
2026-04-14 21:54 26.30265 45.78999 33398 ft 492 kts 94°
2026-04-14 21:54 26.30248 45.82813 33781 ft 492 kts 94°
2026-04-14 21:55 26.30229 45.86618 34151 ft 492 kts 95°
2026-04-14 21:55 26.30207 45.90441 34468 ft 492 kts 95°
2026-04-14 21:55 26.30182 45.94211 34767 ft 492 kts 95°
2026-04-14 21:55 26.30156 45.98019 35063 ft 493 kts 95°
2026-04-14 21:56 26.30132 46.01839 35348 ft 493 kts 95°
2026-04-14 21:56 26.30109 46.05661 35632 ft 493 kts 96°
2026-04-14 21:56 26.30084 46.09481 35907 ft 493 kts 96°
2026-04-14 21:56 26.30059 46.13306 36182 ft 493 kts 96°
2026-04-14 21:57 26.30034 46.17131 36450 ft 494 kts 96°
2026-04-14 21:57 26.30006 46.20958 36712 ft 494 kts 96°
2026-04-14 21:57 26.29976 46.24779 36957 ft 494 kts 96°
2026-04-14 21:57 26.29944 46.28612 37129 ft 495 kts 96°
2026-04-14 21:58 26.29873 46.36347 37166 ft 503 kts 96°
2026-04-14 21:58 26.29806 46.44158 37166 ft 504 kts 96°
2026-04-14 21:59 26.29735 46.51983 37163 ft 505 kts 96°
2026-04-14 21:59 26.29658 46.59813 37166 ft 506 kts 96°
2026-04-14 22:00 26.29578 46.67593 37169 ft 506 kts 96°
2026-04-14 22:00 26.29488 46.75440 37167 ft 506 kts 96°
2026-04-14 22:01 26.29388 46.83284 37167 ft 507 kts 97°
2026-04-14 22:01 26.29293 46.91154 37164 ft 508 kts 96°
2026-04-14 22:02 26.29194 46.99022 37175 ft 508 kts 96°
2026-04-14 22:02 26.29090 47.06894 37176 ft 508 kts 96°
2026-04-14 22:03 26.28978 47.14763 37172 ft 508 kts 96°
2026-04-14 22:03 26.28860 47.22651 37171 ft 509 kts 96°
2026-04-14 22:04 26.28727 47.30534 37170 ft 509 kts 96°
2026-04-14 22:04 26.28576 47.38430 37175 ft 509 kts 96°
2026-04-14 22:05 26.28428 47.46262 37172 ft 509 kts 96°
2026-04-14 22:05 26.28277 47.54148 37174 ft 510 kts 96°
2026-04-14 22:06 26.28125 47.62049 37170 ft 510 kts 96°
2026-04-14 22:06 26.28229 47.69969 37167 ft 515 kts 86°
2026-04-14 22:07 26.29706 47.77824 37164 ft 519 kts 80°
2026-04-14 22:07 26.31314 47.85657 37161 ft 519 kts 80°
2026-04-14 22:08 26.32912 47.93512 37154 ft 520 kts 80°
2026-04-14 22:08 26.34505 48.01368 37157 ft 520 kts 80°
2026-04-14 22:09 26.36103 48.09244 37150 ft 521 kts 79°
2026-04-14 22:09 26.37702 48.17124 37149 ft 522 kts 80°
2026-04-14 22:10 26.39277 48.24979 37142 ft 523 kts 80°
2026-04-14 22:10 26.40865 48.32898 37142 ft 523 kts 80°
2026-04-14 22:11 26.42456 48.40815 37133 ft 524 kts 79°
2026-04-14 22:11 26.44047 48.48752 37130 ft 524 kts 80°
2026-04-14 22:12 26.45626 48.56693 37124 ft 525 kts 80°
2026-04-14 22:12 26.47192 48.64666 37115 ft 525 kts 83°
2026-04-14 22:13 26.47684 48.71372 37112 ft 520 kts 93°
2026-04-14 22:13 26.47857 48.79449 37108 ft 521 kts 93°
2026-04-14 22:14 26.48039 48.87547 37107 ft 522 kts 93°
2026-04-14 22:14 26.48216 48.95646 37109 ft 523 kts 92°
2026-04-14 22:15 26.48398 49.03770 37106 ft 523 kts 92°
2026-04-14 22:15 26.48566 49.11895 37103 ft 524 kts 93°
2026-04-14 22:16 26.48725 49.20028 37101 ft 524 kts 93°
2026-04-14 22:16 26.48884 49.28164 37098 ft 524 kts 93°
2026-04-14 22:17 26.49036 49.36300 37093 ft 525 kts 93°
2026-04-14 22:17 26.49187 49.44451 37085 ft 525 kts 92°
2026-04-14 22:18 26.49340 49.52544 37076 ft 525 kts 92°
2026-04-14 22:18 26.49479 49.60702 37075 ft 526 kts 93°
2026-04-14 22:19 26.49657 49.72935 37070 ft 525 kts 96°
2026-04-14 22:20 26.48563 49.80859 37073 ft 511 kts 114°
2026-04-14 22:20 26.46056 49.88193 37070 ft 505 kts 119°
2026-04-14 22:21 26.43452 49.95465 37071 ft 505 kts 119°
2026-04-14 22:21 26.40853 50.02752 37052 ft 505 kts 118°
2026-04-14 22:22 26.38246 50.10032 37049 ft 505 kts 118°
2026-04-14 22:22 26.35634 50.17291 37047 ft 505 kts 118°
2026-04-14 22:23 26.33037 50.24501 37049 ft 504 kts 118°
2026-04-14 22:23 26.30498 50.31794 37051 ft 508 kts 112°
2026-04-14 22:24 26.29188 50.39604 37048 ft 515 kts 103°
2026-04-14 22:24 26.28177 50.47500 37044 ft 515 kts 103°
2026-04-14 22:25 26.27151 50.55398 37042 ft 515 kts 103°
2026-04-14 22:25 26.26079 50.63271 37040 ft 512 kts 108°
2026-04-14 22:26 26.23755 50.70627 37044 ft 499 kts 122°
2026-04-14 22:26 26.20860 50.77648 37040 ft 499 kts 121°
2026-04-14 22:27 26.18000 50.84632 37038 ft 499 kts 121°
2026-04-14 22:27 26.15122 50.91673 37040 ft 500 kts 121°
2026-04-14 22:28 26.12233 50.98705 37036 ft 500 kts 121°
2026-04-14 22:28 26.09248 51.05668 37034 ft 497 kts 123°
2026-04-14 22:29 26.06036 51.12475 37027 ft 496 kts 125°
2026-04-14 22:29 26.02776 51.19228 37026 ft 496 kts 124°
2026-04-14 22:30 25.99557 51.26028 37025 ft 497 kts 124°
2026-04-14 22:30 25.96381 51.32848 37018 ft 497 kts 124°
2026-04-14 22:31 25.93147 51.39621 37013 ft 496 kts 124°
2026-04-14 22:31 25.89885 51.46320 37014 ft 496 kts 125°
2026-04-14 22:32 25.86596 51.53057 37012 ft 496 kts 124°
2026-04-14 22:32 25.83317 51.59794 37009 ft 496 kts 124°
2026-04-14 22:33 25.80054 51.66532 37005 ft 495 kts 124°
2026-04-14 22:33 25.76773 51.73251 37001 ft 494 kts 125°
2026-04-14 22:34 25.73404 51.79887 37003 ft 493 kts 126°
2026-04-14 22:34 25.69989 51.86489 37004 ft 493 kts 126°
2026-04-14 22:35 25.66429 51.92948 36999 ft 490 kts 129°
2026-04-14 22:35 25.62775 51.99272 36998 ft 490 kts 129°
2026-04-14 22:36 25.59125 52.05635 36999 ft 490 kts 128°
2026-04-14 22:36 25.55512 52.12035 36995 ft 490 kts 128°
2026-04-14 22:37 25.51914 52.18439 36996 ft 490 kts 128°
2026-04-14 22:37 25.48302 52.24829 36992 ft 489 kts 128°
2026-04-14 22:38 25.44991 52.31443 36989 ft 494 kts 122°
2026-04-14 22:38 25.41933 52.38246 36988 ft 494 kts 122°
2026-04-14 22:39 25.38865 52.45035 36987 ft 493 kts 123°
2026-04-14 22:39 25.35614 52.51703 36984 ft 492 kts 125°
2026-04-14 22:40 25.32250 52.58281 36979 ft 491 kts 125°
2026-04-14 22:40 25.28920 52.64863 36958 ft 492 kts 124°
2026-04-14 22:40 25.27269 52.68172 36701 ft 492 kts 124°
2026-04-14 22:41 25.25697 52.71534 36434 ft 493 kts 121°
2026-04-14 22:41 25.24239 52.74965 35783 ft 496 kts 119°
2026-04-14 22:41 25.22856 52.78469 35053 ft 499 kts 117°
2026-04-14 22:41 25.21506 52.82018 34250 ft 503 kts 117°
2026-04-14 22:42 25.20145 52.85588 33273 ft 507 kts 117°
2026-04-14 22:42 25.18772 52.89101 32742 ft 501 kts 118°
2026-04-14 22:42 25.17369 52.92598 32189 ft 496 kts 118°
2026-04-14 22:42 25.15948 52.96055 31630 ft 492 kts 119°
2026-04-14 22:43 25.14528 52.99471 31078 ft 489 kts 119°
2026-04-14 22:43 25.13116 53.02867 30508 ft 486 kts 119°
2026-04-14 22:43 25.11715 53.06249 29949 ft 483 kts 119°
2026-04-14 22:43 25.10329 53.09609 29350 ft 479 kts 120°
2026-04-14 22:44 25.08740 53.12788 28817 ft 467 kts 129°
2026-04-14 22:44 25.06914 53.15713 28279 ft 461 kts 130°
2026-04-14 22:44 25.05093 53.18600 27766 ft 457 kts 130°
2026-04-14 22:44 25.03281 53.21465 27244 ft 453 kts 130°
2026-04-14 22:45 25.01485 53.24297 26756 ft 449 kts 130°
2026-04-14 22:45 24.99704 53.27104 26263 ft 445 kts 129°
2026-04-14 22:45 24.97940 53.29883 25786 ft 442 kts 129°
2026-04-14 22:45 24.96182 53.32652 25319 ft 439 kts 129°
2026-04-14 22:46 24.94437 53.35399 24860 ft 436 kts 129°
2026-04-14 22:46 24.92701 53.38135 24403 ft 434 kts 129°
2026-04-14 22:46 24.90978 53.40859 23947 ft 433 kts 127°
2026-04-14 22:46 24.89449 53.43737 23473 ft 434 kts 122°
2026-04-14 22:47 24.88005 53.46604 22961 ft 433 kts 122°
2026-04-14 22:47 24.86550 53.49490 22492 ft 430 kts 122°
2026-04-14 22:47 24.85100 53.52362 22011 ft 428 kts 122°
2026-04-14 22:47 24.83656 53.55220 21523 ft 426 kts 122°
2026-04-14 22:48 24.82216 53.58062 21025 ft 424 kts 122°
2026-04-14 22:48 24.80777 53.60892 20519 ft 423 kts 122°
2026-04-14 22:48 24.79345 53.63711 20005 ft 421 kts 122°
2026-04-14 22:48 24.77920 53.66523 19492 ft 420 kts 122°
2026-04-14 22:49 24.76500 53.69328 18968 ft 419 kts 122°
2026-04-14 22:49 24.75093 53.72106 18464 ft 411 kts 122°
2026-04-14 22:49 24.73718 53.74821 17909 ft 401 kts 122°
2026-04-14 22:49 24.72375 53.77462 17406 ft 390 kts 122°
2026-04-14 22:50 24.71067 53.80028 16930 ft 380 kts 122°
2026-04-14 22:50 24.69789 53.82535 16454 ft 371 kts 122°
2026-04-14 22:50 24.68543 53.84983 15987 ft 363 kts 122°
2026-04-14 22:50 24.67324 53.87378 15539 ft 356 kts 122°
2026-04-14 22:51 24.66125 53.89729 15101 ft 349 kts 122°
2026-04-14 22:51 24.64950 53.92030 14770 ft 341 kts 122°
2026-04-14 22:51 24.63962 53.94406 14545 ft 343 kts 109°
2026-04-14 22:51 24.63460 53.96973 14304 ft 344 kts 97°
2026-04-14 22:52 24.63176 53.99578 14073 ft 343 kts 97°
2026-04-14 22:52 24.62888 54.02178 13846 ft 342 kts 98°
2026-04-14 22:52 24.62596 54.04775 13601 ft 341 kts 98°
2026-04-14 22:52 24.62305 54.07351 13339 ft 340 kts 98°
2026-04-14 22:53 24.62013 54.09924 13088 ft 338 kts 98°
2026-04-14 22:53 24.61721 54.12484 12831 ft 337 kts 98°
2026-04-14 22:53 24.61430 54.15036 12580 ft 336 kts 98°
2026-04-14 22:53 24.61142 54.17573 12331 ft 334 kts 98°
2026-04-14 22:54 24.60856 54.20101 12083 ft 333 kts 98°
2026-04-14 22:54 24.60570 54.22622 11835 ft 332 kts 98°
2026-04-14 22:54 24.60284 54.25133 11587 ft 331 kts 98°
2026-04-14 22:54 24.59999 54.27635 11350 ft 330 kts 98°
2026-04-14 22:55 24.59717 54.30095 11112 ft 328 kts 98°
2026-04-14 22:55 24.59430 54.32574 10899 ft 326 kts 98°
2026-04-14 22:55 24.58984 54.35003 11007 ft 327 kts 104°
2026-04-14 22:55 24.58480 54.37446 11010 ft 328 kts 104°
2026-04-14 22:56 24.57985 54.39887 11012 ft 328 kts 104°
2026-04-14 22:56 24.57554 54.42023 11011 ft 328 kts 104°
2026-04-14 22:56 24.57060 54.44468 11012 ft 328 kts 104°
2026-04-14 22:56 24.56567 54.46912 10993 ft 328 kts 104°
2026-04-14 22:57 24.56076 54.49354 10762 ft 326 kts 103°
2026-04-14 22:57 24.55592 54.51788 10570 ft 325 kts 103°
2026-04-14 22:57 24.55108 54.54209 10379 ft 324 kts 103°
2026-04-14 22:57 24.54625 54.56623 10190 ft 323 kts 103°
2026-04-14 22:58 24.54140 54.59031 10006 ft 323 kts 104°
2026-04-14 22:58 24.53655 54.61431 9808 ft 321 kts 104°
2026-04-14 22:58 24.53170 54.63824 9611 ft 320 kts 104°
2026-04-14 22:58 24.52688 54.66206 9420 ft 319 kts 103°
2026-04-14 22:59 24.52209 54.68575 9237 ft 317 kts 103°
2026-04-14 22:59 24.51615 54.70894 9051 ft 314 kts 114°
2026-04-14 22:59 24.50579 54.73000 8633 ft 316 kts 128°
2026-04-14 22:59 24.49227 54.74887 8340 ft 312 kts 131°
2026-04-14 23:00 24.47887 54.76747 7973 ft 308 kts 130°
2026-04-14 23:00 24.46598 54.78559 7697 ft 293 kts 129°
2026-04-14 23:00 24.45371 54.80296 7326 ft 284 kts 129°
2026-04-14 23:00 24.44186 54.81973 6901 ft 279 kts 129°
2026-04-14 23:01 24.43010 54.83633 6536 ft 274 kts 128°
2026-04-14 23:01 24.41841 54.85275 6095 ft 271 kts 128°
2026-04-14 23:01 24.40669 54.86917 5658 ft 276 kts 127°
2026-04-14 23:01 24.39485 54.88571 5382 ft 274 kts 127°
2026-04-14 23:02 24.38310 54.90202 5021 ft 272 kts 129°
2026-04-14 23:02 24.36823 54.91450 4503 ft 271 kts 159°
2026-04-14 23:02 24.34991 54.91760 3953 ft 268 kts 189°
2026-04-14 23:02 24.33284 54.91074 3436 ft 257 kts 220°
2026-04-14 23:03 24.32106 54.89752 3350 ft 232 kts 235°
2026-04-14 23:03 24.31087 54.88400 3257 ft 228 kts 235°
2026-04-14 23:03 24.30091 54.87063 3148 ft 223 kts 239°
2026-04-14 23:03 24.29565 54.85574 3053 ft 201 kts 273°
2026-04-14 23:04 24.29830 54.84141 3020 ft 189 kts 302°
2026-04-14 23:04 24.30579 54.82995 3025 ft 187 kts 311°
2026-04-14 23:04 24.31392 54.81864 3020 ft 187 kts 311°
2026-04-14 23:04 24.32183 54.80758 2997 ft 186 kts 311°
2026-04-14 23:05 24.32958 54.79669 2849 ft 177 kts 311°
2026-04-14 23:05 24.33707 54.78618 2629 ft 172 kts 310°
2026-04-14 23:05 24.34434 54.77597 2408 ft 167 kts 310°
2026-04-14 23:05 24.35129 54.76621 2196 ft 155 kts 310°
2026-04-14 23:06 24.35753 54.75743 2022 ft 140 kts 310°
2026-04-14 23:06 24.36340 54.74919 1852 ft 135 kts 309°
2026-04-14 23:06 24.36913 54.74114 1678 ft 133 kts 309°
2026-04-14 23:06 24.37482 54.73314 1511 ft 133 kts 309°
2026-04-14 23:07 24.38051 54.72514 1330 ft 133 kts 309°
2026-04-14 23:07 24.38620 54.71715 1158 ft 133 kts 309°
2026-04-14 23:07 24.39193 54.70915 991 ft 133 kts 309°
2026-04-14 23:07 24.39758 54.70105 880 ft 134 kts 308°
2026-04-14 23:08 24.40318 54.69282 675 ft 135 kts 306°
2026-04-14 23:08 24.40908 54.68473 522 ft 136 kts 307°
2026-04-14 23:08 24.41494 54.67663 344 ft 135 kts 307°
2026-04-14 23:08 24.42076 54.66852 176 ft 135 kts 306°
2026-04-14 23:09 24.42645 54.66062 82 ft 127 kts 306°
2026-04-14 23:09 24.43048 54.65464 78 ft 57 kts 308°
2026-04-14 23:09 24.43206 54.65252 81 ft 32 kts 308°
2026-04-14 23:09 24.43345 54.65053 69 ft 34 kts 304°
2026-04-14 23:10 24.43400 54.64852 77 ft 18 kts 277°
2026-04-14 23:10 24.43417 54.64703 76 ft 21 kts 278°
2026-04-14 23:10 24.43440 54.64535 76 ft 23 kts 278°
2026-04-14 23:10 24.43425 54.64420 67 ft 24 kts 233°
2026-04-14 23:11 24.43293 54.64297 72 ft 25 kts 239°
2026-04-14 23:11 24.43170 54.64229 76 ft 2 kts 225°